Location: Newark
(51.5000°N, 0.1167°W)
Time: 18:39:02
(UTC+00:00)

Tiangong 2 - Visible Passes

Search period start: 15 July 2019 00:00
Search period end: 25 July 2019 00:00
Orbit: 378 x 386 km, 42.8° (Epoch: 15 July)

Date Brightness Start Highest point End Pass type
(mag) Time Alt. Az. Time Alt. Az. Time Alt. Az.
15 Jul 2.9 21:37:45 10° SW 21:39:40 15° S 21:40:27 14° S visible
17 Jul 3.3 21:13:54 10° SW 21:15:25 13° SSW 21:16:57 10° SSE visible
19 Jul 3.6 20:50:40 10° SSW 20:51:08 10° SSW 20:51:36 10° SSW visible
